[TLELIST] Archives

 

[list_settings.list_name] Current TLEs

January 16th 2011 PST

HST 1 20580U 90037B 11014.81502212 .00000584 00000-0 31769-4 0 7010 2 20580 028.4712 298.1349 0003179 286.5078 073.5161 15.01141079936586 ISS (ZARYA) 1 25544U 98067A 11015.19844065 .00015178 00000-0 11814-3 0 6453 2 25544 051.6443 225.2258 0005007 181.5221 282.9745 15.71961918696829 CXO 1 25867U 99040B 11015.58333333 -.00000673 00000-0 00000+0 0 5609 2 25867 068.3199 041.6914 8457300 275.9303 355.0217 00.37799305 7190 ____________________________________________________________________ These 2-Line ...Continue Reading

[list_settings.list_name] Current TLEs

January 15th 2011 PST

HST 1 20580U 90037B 11011.15833349 .00000612 00000-0 33865-4 0 6999 2 20580 028.4718 322.0136 0003433 245.5637 114.4619 15.01138125936033 ISS (ZARYA) 1 25544U 98067A 11014.34959491 .00036498 00000-0 27686-3 0 6394 2 25544 051.6451 229.5723 0005317 181.9890 155.6760 15.71964563696688 CXO 1 25867U 99040B 11012.95833333 -.00000626 00000-0 00000+0 0 5598 2 25867 068.3037 041.8557 8457632 275.9341 357.5961 00.37805700 7185 ____________________________________________________________________ These 2-Line ...Continue Reading

[list_settings.list_name] Current TLEs

January 14th 2011 PST

HST 1 20580U 90037B 11011.15833349 .00000612 00000-0 33865-4 0 6999 2 20580 028.4718 322.0136 0003433 245.5637 114.4619 15.01138125936033 ISS (ZARYA) 1 25544U 98067A 11013.22767483 .00014165 00000-0 10702-3 0 6329 2 25544 051.6454 235.3126 0005112 134.5893 329.4819 15.72741632696512 CXO 1 25867U 99040B 11012.95833333 -.00000626 00000-0 00000+0 0 5598 2 25867 068.3037 041.8557 8457632 275.9341 357.5961 00.37805700 7185 ____________________________________________________________________ These 2-Line ...Continue Reading

[list_settings.list_name] Current TLEs

January 13th 2011 PST

HST 1 20580U 90037B 11011.15833349 .00000612 00000-0 33865-4 0 6999 2 20580 028.4718 322.0136 0003433 245.5637 114.4619 15.01138125936033 ISS (ZARYA) 1 25544U 98067A 11012.38332176 .00014693 00000-0 11094-3 0 6277 2 25544 051.6455 239.6401 0005160 132.3404 227.9393 15.72718975696381 CXO 1 25867U 99040B 11012.95833333 -.00000626 00000-0 00000+0 0 5598 2 25867 068.3037 041.8557 8457632 275.9341 357.5961 00.37805700 7185 ____________________________________________________________________ These 2-Line ...Continue Reading

[list_settings.list_name] Current TLEs

January 12th 2011 PST

HST 1 20580U 90037B 11011.15833349 .00000612 00000-0 33865-4 0 6999 2 20580 028.4718 322.0136 0003433 245.5637 114.4619 15.01138125936033 ISS (ZARYA) 1 25544U 98067A 11011.07277708 .00014681 00000-0 11104-3 0 6203 2 25544 051.6453 246.3563 0005186 126.7666 008.5862 15.72679274696177 CXO 1 25867U 99040B 11010.29166667 -.00000593 00000-0 00000+0 0 5584 2 25867 068.2841 042.0456 8457414 275.9060 354.5772 00.37809070 7174 ____________________________________________________________________ These 2-Line ...Continue Reading

[list_settings.list_name] Current TLEs

January 11th 2011 PST

HST 1 20580U 90037B 11009.16377404 .00000587 00000-0 31975-4 0 6982 2 20580 028.4715 335.0345 0003454 225.3438 134.6899 15.01136194935738 ISS (ZARYA) 1 25544U 98067A 11010.41099537 .00014488 00000-0 10974-3 0 6155 2 25544 051.6449 249.7475 0005253 124.0178 222.0613 15.72658153696063 CXO 1 25867U 99040B 11010.29166667 -.00000593 00000-0 00000+0 0 5584 2 25867 068.2841 042.0456 8457414 275.9060 354.5772 00.37809070 7174 ____________________________________________________________________ These 2-Line ...Continue Reading

[list_settings.list_name] Current TLEs

January 9th 2011 PST

HST 1 20580U 90037B 11007.36867007 .00000581 00000-0 31513-4 0 6976 2 20580 028.4713 346.7564 0003507 207.2846 152.7635 15.01134604935462 ISS (ZARYA) 1 25544U 98067A 11008.44113426 .00013844 00000-0 10534-3 0 6011 2 25544 051.6457 259.8435 0005264 118.1855 228.0868 15.72597070695751 CXO 1 25867U 99040B 11 5.07971993 .00000000 00000-0 10000-3 0 5576 2 25867 068.2431 042.3118 8449579 275.8505 005.1670 00.37811713 7154 ____________________________________________________________________ These 2-Line ...Continue Reading

[list_settings.list_name] Current TLEs

January 8th 2011 PST

HST 1 20580U 90037B 11004.24385423 .00000555 00000-0 29520-4 0 6962 2 20580 028.4705 007.1641 0003638 177.7199 182.3474 15.01131757934997 ISS (ZARYA) 1 25544U 98067A 11007.48903935 .00013128 00000-0 10026-3 0 5959 2 25544 051.6472 264.7207 0005217 113.3917 239.1525 15.72568299695602 CXO 1 25867U 99040B 11 5.07971993 .00000000 00000-0 10000-3 0 5576 2 25867 068.2431 042.3118 8449579 275.8505 005.1670 00.37811713 7154 ____________________________________________________________________ These 2-Line ...Continue Reading

[list_settings.list_name] Current TLEs

January 7th 2011 PST

HST 1 20580U 90037B 11004.24385423 .00000555 00000-0 29520-4 0 6962 2 20580 028.4705 007.1641 0003638 177.7199 182.3474 15.01131757934997 ISS (ZARYA) 1 25544U 98067A 11006.30005907 .00013038 00000-0 99734-4 0 5900 2 25544 051.6467 270.8143 0005334 108.8315 348.1413 15.72535902695426 CXO 1 25867U 99040B 11005.00000000 -.00000719 00000-0 00000+0 0 5563 2 25867 068.2527 042.3438 8452618 275.8592 354.2868 00.37804762 7152 ____________________________________________________________________ These 2-Line ...Continue Reading

[list_settings.list_name] Current TLEs

January 6th 2011 PST

HST 1 20580U 90037B 11004.24385423 .00000555 00000-0 29520-4 0 6962 2 20580 028.4705 007.1641 0003638 177.7199 182.3474 15.01131757934997 ISS (ZARYA) 1 25544U 98067A 11005.34762931 .00017502 00000-0 13236-3 0 5834 2 25544 051.6477 275.6896 0005299 108.0210 353.5559 15.72518785695275 CXO 1 25867U 99040B 11005.00000000 -.00000719 00000-0 00000+0 0 5563 2 25867 068.2527 042.3438 8452618 275.8592 354.2868 00.37804762 7152 ____________________________________________________________________ These 2-Line ...Continue Reading
  • This mailing list is a public mailing list - anyone may join or leave, at any time.
  • This mailing list is announce-only.

International Space Station (ISS) / Hubble Space Telescope (HST) / Chandra X-Ray Observatory Orbital Data via EMAIL

Privacy Policy:

Private list